This is the latest recevied weather packets stored in our database for station/object KD2DXJ. If no packets are shown the sender has not sent any weather packets the latest 10 day(s).
| Time | Temp. | Humidity | Pressure | Rain* | Wind** | Luminosity | Snow |
|---|---|---|---|---|---|---|---|
| 1777591089 | 6.67° C | 99% | 1010 hPa | 0 mm | - | 7 W/m² | - |
| 1777590784 | 6.67° C | 99% | 1009.9 hPa | 0 mm | - | 9 W/m² | - |
| 1777590480 | 6.67° C | 99% | 1010 hPa | 0 mm | - | 12 W/m² | - |
| 1777590177 | 6.67° C | 99% | 1010 hPa | 0 mm | - | 15 W/m² | - |
| 1777589874 | 6.67° C | 98% | 1010 hPa | 0 mm | - | 16 W/m² | - |
| 1777589569 | 6.67° C | 98% | 1010 hPa | 1.78 mm | - | 15 W/m² | - |
| 1777589268 | 6.67° C | 97% | 1009.9 hPa | 3.05 mm | - | 21 W/m² | - |
| 1777588965 | 6.67° C | 97% | 1010 hPa | 2.29 mm | - | 21 W/m² | - |
| 1777588660 | 6.67° C | 96% | 1009.9 hPa | 1.27 mm | - | 21 W/m² | - |
| 1777588356 | 7.22° C | 94% | 1009.8 hPa | 0 mm | - | 20 W/m² | - |
| 1777588052 | 7.22° C | 93% | 1009.9 hPa | 0 mm | - | 21 W/m² | - |
| 1777587748 | 7.22° C | 92% | 1009.8 hPa | 0 mm | - | 22 W/m² | - |
| 1777587442 | 7.22° C | 92% | 1009.9 hPa | 0 mm | - | 26 W/m² | - |
| 1777587139 | 7.22° C | 92% | 1009.8 hPa | 0 mm | - | 31 W/m² | - |
| 1777586834 | 7.22° C | 92% | 1009.7 hPa | 0 mm | - | 33 W/m² | - |
| 1777586530 | 7.78° C | 91% | 1009.8 hPa | 0 mm | - | 33 W/m² | - |
| 1777586226 | 7.78° C | 89% | 1009.8 hPa | 0 mm | - | 42 W/m² | - |
| 1777585924 | 7.78° C | 90% | 1009.8 hPa | 0 mm | - | 44 W/m² | - |
| 1777585624 | 7.78° C | 89% | 1009.8 hPa | 0 mm | - | 44 W/m² | - |
| 1777585319 | 7.78° C | 87% | 1009.7 hPa | 0 mm | - | 56 W/m² | - |
| 1777585014 | 7.78° C | 87% | 1009.7 hPa | 0 mm | - | 67 W/m² | - |
| 1777584711 | 8.33° C | 85% | 1009.7 hPa | 0 mm | - | 77 W/m² | - |
| 1777584409 | 8.33° C | 86% | 1009.5 hPa | 0 mm | - | 87 W/m² | - |
| 1777584105 | 8.33° C | 86% | 1009.5 hPa | 0 mm | - | 87 W/m² | - |
| 1777583804 | 8.33° C | 85% | 1009.4 hPa | 0 mm | - | 89 W/m² | - |
* Rain latest hour (hover to see other rain measurements)
** Current wind speed in m/s (hover to see current wind gust speed)